Tracking 28518 objects as of 2-Mar-2024
HD Live streaming from Space Station
objects crossing your sky now

STARLINK-31315

Track STARLINK-31315 now!
10-day predictions
STARLINK-31315 is classified as:


NORAD ID: 58884
Int'l Code: 2024-020J
Perigee: 359.1 km
Apogee: 361.2 km
Inclination: 53.2 °
Period: 91.6 minutes
Semi major axis: 6731 km
RCS: Unknown
Launch date: January 29, 2024
Source: United States (US)
Launch site: AIR FORCE WESTERN TEST RANGE (AFWTR)
Your satellite tracking list
Your tracking list is empty




NASA's NSSDC Master Catalog

Two Line Element Set (TLE):
1 58884U 24020J   24061.91667824 -.00605291  00000-0 -48556-2 0  9992
2 58884  53.1590 143.2339 0001555  56.0904 133.2310 15.72071964  6194
Source of the keplerian elements: AFSPC